RH
22 22 22 21 21 21 21 21 21 21 20 20 20 20 19 19 18 17 16 16 15 15 15 15 15 15 15 15 15 15 15 15 15 15 14 14 14 13 13 13 12 12 11 11 11 10 10 9 9 8 8 8
23 23 23 23 23 23 23 23 23 22 22 22 21 20 19 18 17 15 14 13 12 12 11 11 12 13 13 14 14 14 15 15 15 16 15 15 15 15 14 14 13 13 13 12 12 11 11 10 10 10 9 9
24 24 24 24 24 23 22 21 20 20 20 19 18 18 17 15 14 13 13 12 11 11 10 10 9 10 11 12 13 14 15 15 15 15 16 15 15 15 14 14 14 13 13 13 13 13 12 12 11 10 10 10
24 23 22 20 19 17 16 15 14 14 14 13 13 13 12 12 11 11 11 10 10 10 10 10 9 9 9 10 12 13 14 14 15 15 15 15 15 15 14 14 14 14 13 14 14 14 13 13 12 12 11 11
21 19 17 15 13 13 12 12 12 12 11 11 11 10 10 10 10 9 10 10 10 10 10 10 10 10 10 10 11 12 14 14 15 15 15 15 15 15 15 15 14 14 14 14 14 13 13 13 13 13 12 12
16 13 12 12 11 11 11 10 10 10 10 10 10 10 10 10 10 10 10 10 10 10 11 11 11 11 11 12 12 13 14 15 15 15 15 15 15 15 15 16 15 15 15 15 15 14 13 12 13 13 13 12
12 11 11 11 11 12 13 13 13 14 14 13 14 14 13 13 13 13 13 13 13 13 13 13 13 13 13 14 14 15 15 15 16 16 16 16 16 15 15 15 15 16 16 16 16 15 15 14 13 13 13 13
11 12 13 14 15 17 19 19 19 19 19 19 20 21 21 21 21 20 19 18 18 17 16 16 16 16 16 16 16 17 17 17 17 17 17 17 16 15 14 14 14 15 15 16 15 16 16 15 14 14 13 13
15 17 19 20 22 22 23 22 21 19 18 16 16 17 19 21 23 25 26 26 25 24 23 21 20 20 19 19 19 19 19 19 19 18 18 17 16 15 14 13 13 13 13 14 14 14 15 16 15 15 14 13
22 23 23 24 24 24 24 23 22 20 18 15 13 11 10 10 13 16 19 23 25 26 27 26 25 24 22 22 21 20 20 20 19 19 18 17 16 15 14 13 12 11 11 12 12 13 14 15 16 16 16 15
25 25 25 25 25 24 24 24 23 22 20 18 15 12 10 8 7 7 9 11 14 17 19 22 24 25 24 23 22 22 21 20 20 19 18 17 17 16 14 14 13 12 11 11 11 12 13 14 16 17 17 17
26 27 27 27 26 26 26 25 25 24 23 21 19 16 13 10 8 7 6 6 7 8 10 13 16 19 21 21 22 22 22 21 20 20 19 18 17 16 15 15 14 13 12 12 12 12 13 14 15 16 17 18
28 28 28 28 28 28 28 28 27 27 26 24 23 20 17 13 10 8 7 7 7 6 7 7 9 12 15 17 19 20 22 22 22 21 21 20 19 18 17 16 15 14 14 14 14 14 14 15 15 16 18 18
28 28 28 29 30 30 31 30 30 29 28 27 25 23 19 16 12 10 8 9 9 9 9 8 9 11 12 15 15 16 20 21 22 23 23 22 21 20 18 18 18 16 16 17 17 16 16 17 17 17 18 19
28 27 28 29 31 32 33 32 32 31 30 29 27 24 21 17 12 9 9 11 12 13 14 13 12 12 13 14 14 14 16 18 21 23 24 24 22 21 20 20 20 20 19 19 19 18 18 18 18 18 19 20
27 27 27 29 31 33 34 34 33 32 31 29 28 26 22 17 11 9 10 12 15 17 19 19 18 18 18 19 19 18 18 19 22 25 27 28 25 24 23 23 24 23 22 22 22 20 20 20 20 20 20 20
26 27 29 31 33 35 35 34 33 32 31 29 28 25 20 15 10 7 9 12 15 20 24 26 25 25 26 27 28 28 27 26 28 28 29 30 29 28 28 28 28 27 26 26 25 23 23 21 21 22 21 21
28 30 32 35 36 36 35 33 33 32 30 28 25 21 16 12 9 6 7 10 14 19 25 30 33 33 32 31 31 34 35 36 35 33 32 32 31 31 31 32 32 32 31 30 29 27 25 24 24 24 23 23
33 35 37 38 37 35 34 33 31 30 27 23 18 13 10 7 6 5 5 7 11 15 22 30 36 37 35 31 29 32 37 39 40 39 38 37 35 33 32 33 34 35 35 34 33 31 29 28 27 26 26 24
38 39 39 37 35 34 32 30 27 23 18 13 9 6 5 4 4 4 5 5 7 11 17 24 32 37 37 35 32 32 36 41 45 46 46 46 43 39 36 36 37 39 39 38 38 36 33 32 30 29 28 27
40 39 38 36 34 31 29 25 19 13 9 6 5 4 4 4 4 4 5 5 6 9 13 19 27 34 38 40 37 35 38 43 48 51 54 56 56 52 47 44 42 42 44 43 43 42 40 37 34 33 31 29
40 38 37 34 31 27 23 18 12 7 5 5 5 5 5 5 5 5 5 6 7 9 12 17 23 30 36 40 41 40 41 46 51 53 58 64 67 65 61 58 53 49 47 47 47 48 47 44 39 37 34 32
39 37 33 29 26 22 16 11 8 5 5 5 5 5 5 5 6 6 6 7 9 10 12 15 20 26 33 38 41 44 44 49 54 56 59 64 69 72 72 72 69 62 54 50 50 52 54 51 44 41 38 34
36 31 26 22 20 16 11 7 5 5 5 5 5 5 5 5 5 6 6 7 7 9 11 13 18 23 30 37 42 47 51 55 60 60 61 64 67 71 74 78 79 76 68 58 54 56 58 57 52 45 41 38
30 25 23 20 15 10 6 4 4 4 4 4 4 4 4 4 4 4 5 6 6 7 9 11 15 19 26 34 41 48 56 64 69 68 67 67 68 70 73 77 81 81 79 72 64 61 60 60 59 52 45 41
24 20 17 13 8 5 4 3 3 3 3 4 3 3 3 3 3 4 4 5 6 7 9 10 13 17 22 29 36 43 51 62 71 78 79 75 70 71 72 75 80 80 83 84 75 66 62 61 63 61 51 44
18 13 9 6 4 3 3 3 3 3 3 4 4 4 4 4 4 4 5 5 5 6 7 9 10 14 17 22 29 34 40 50 61 75 85 86 79 76 74 74 77 82 86 89 83 72 65 63 64 64 59 49
11 7 4 4 3 3 3 4 4 4 4 5 5 5 5 5 5 5 6 5 6 6 6 7 7 9 11 13 18 21 26 34 46 61 76 89 91 85 81 77 76 81 86 90 89 79 69 69 67 64 63 56
6 4 3 4 4 5 5 5 6 5 6 6 6 7 6 7 7 7 7 7 7 7 7 7 7 7 7 8 9 11 13 18 28 42 60 82 95 93 88 84 80 80 84 88 92 87 78 76 74 66 65 61
4 4 4 5 5 6 6 6 7 7 7 7 7 8 8 8 9 8 9 8 9 9 9 9 9 10 9 9 10 9 9 10 12 20 34 56 81 94 95 91 84 80 83 88 91 91 86 84 82 73 67 64
4 5 6 7 7 7 8 8 8 8 8 9 9 9 10 10 11 11 11 11 11 11 11 11 11 12 12 12 13 13 13 12 12 12 15 28 49 77 97 98 90 83 85 90 91 92 91 90 88 78 70 64
Wind_Speed
21 20 20 20 19 20 20 19 19 19 19 19 20 20 20 21 21 22 22 23 24 24 25 25 25 25 26 27 27 27 28 28 28 28 28 28 29 29 29 29 29 29 30 30 31 30 30 30 30 30 28 26
18 19 18 18 18 18 19 19 19 19 20 20 21 21 22 22 23 24 24 25 26 26 27 26 26 26 26 27 28 28 28 29 29 28 29 29 29 29 29 30 30 30 29 30 31 31 31 30 30 31 30 28
15 16 17 18 18 19 19 20 20 20 21 22 23 23 24 25 25 26 26 27 27 28 29 28 28 27 27 27 28 28 29 29 29 29 29 29 30 29 29 30 30 30 30 30 31 31 32 31 31 30 30 30
14 16 17 18 19 20 21 22 22 22 22 23 23 24 25 26 26 27 27 27 28 28 29 29 29 29 28 28 28 29 29 30 30 29 29 29 30 30 30 30 30 31 31 31 32 32 32 32 32 31 30 30
17 18 19 20 20 21 22 23 23 23 24 24 24 25 26 26 27 27 27 27 28 28 29 30 30 30 30 29 29 30 30 31 31 31 30 30 30 30 30 30 30 31 32 33 33 33 33 33 32 32 31 31
19 20 21 21 21 22 22 23 24 25 25 26 26 26 26 27 28 28 28 28 28 28 29 30 30 31 31 30 31 31 31 32 32 32 31 31 32 32 31 31 31 31 32 34 34 35 35 34 33 33 32 32
20 20 21 22 22 22 23 24 25 26 27 27 28 28 28 28 29 29 29 29 29 29 30 30 31 31 32 32 32 32 32 33 33 33 33 33 33 33 33 32 31 32 33 34 35 35 36 36 35 35 34 33
20 20 21 22 23 23 24 25 26 27 28 29 30 31 31 31 31 32 32 31 31 31 31 31 32 33 33 33 33 33 33 34 34 35 35 35 35 35 35 34 33 33 33 34 35 35 36 36 36 36 35 35
20 20 21 22 23 24 25 26 27 28 28 29 30 31 32 32 33 33 34 34 33 33 33 33 33 34 34 35 35 35 35 35 36 36 37 37 37 37 37 36 35 35 34 35 35 35 35 36 36 37 37 36
19 20 22 23 24 25 26 27 28 29 29 30 31 32 32 33 34 34 35 35 35 35 34 34 35 35 36 36 37 37 37 37 38 38 38 39 39 39 39 38 38 37 37 36 36 36 35 35 35 36 37 37
20 21 23 25 26 27 28 29 30 31 31 32 33 33 34 34 35 35 36 37 37 37 36 36 36 37 37 37 38 39 39 39 39 39 40 40 41 41 41 40 40 40 39 38 38 37 36 35 34 35 35 37
20 22 24 26 27 28 29 30 31 33 33 34 35 35 36 36 36 37 37 38 39 39 39 38 38 38 39 39 39 39 40 40 40 41 41 41 42 42 42 42 42 42 41 40 40 38 37 36 35 35 34 36
21 23 25 27 29 30 31 32 33 34 35 36 37 37 38 38 38 38 38 39 39 40 40 40 40 40 40 41 41 40 40 41 41 41 41 42 42 42 42 42 42 43 42 41 41 40 39 38 37 36 35 35
22 24 27 29 31 32 33 34 35 36 36 37 38 39 39 39 39 39 39 40 40 41 41 41 41 41 41 41 42 42 41 41 42 41 41 42 42 43 42 42 43 43 43 41 41 41 40 40 39 38 37 36
24 27 29 31 33 34 35 36 37 37 38 38 39 39 40 40 40 40 40 40 40 41 41 42 42 42 42 42 43 43 43 42 42 42 42 43 43 43 43 43 43 43 43 42 41 41 41 41 40 40 39 38
27 30 32 34 35 37 38 39 39 40 40 40 40 41 41 41 40 40 40 39 40 41 41 42 43 43 42 42 43 43 43 43 43 43 43 43 44 44 43 43 43 43 44 42 42 42 42 42 41 41 41 40
31 33 35 36 38 39 40 41 42 42 42 42 42 42 42 41 41 40 40 39 39 40 41 42 43 44 44 44 43 43 43 43 43 43 43 43 44 44 44 43 43 43 44 43 43 43 43 42 42 42 42 42
34 36 38 39 40 42 43 43 43 43 43 43 43 43 42 42 41 41 40 39 39 40 40 42 43 45 46 46 45 44 44 44 44 44 44 44 45 45 45 44 43 44 44 43 43 43 43 43 43 43 43 43
36 38 40 41 42 44 44 45 44 44 44 44 44 43 43 42 42 41 40 40 39 39 40 41 42 44 46 47 47 46 46 46 46 46 46 46 46 46 45 45 45 45 45 44 44 44 44 44 43 44 44 44
38 40 42 43 44 45 46 46 46 45 45 44 44 43 43 42 42 41 41 41 41 41 40 40 41 43 46 48 49 48 47 47 47 47 47 47 47 48 47 46 46 46 46 45 45 44 44 44 44 44 44 44
40 42 44 45 47 48 48 48 47 47 46 45 44 44 43 43 42 42 42 42 42 42 41 41 42 42 45 48 50 50 49 48 48 49 48 48 48 49 49 48 47 46 46 47 46 45 45 45 45 45 45 45
43 45 47 48 49 50 50 49 49 48 47 46 46 45 44 44 43 43 43 42 42 43 43 43 43 43 44 47 50 52 51 50 50 50 50 49 48 49 50 49 48 47 47 47 47 46 45 45 46 45 45 45
46 48 49 50 51 52 52 51 50 49 48 48 47 46 45 45 44 44 44 43 43 44 44 44 45 45 45 47 49 52 53 52 52 53 52 51 50 49 50 50 50 49 48 48 48 47 46 46 46 46 45 45
50 51 52 53 53 53 53 52 51 50 49 48 47 46 45 44 44 44 44 44 44 45 45 45 46 46 46 47 49 51 52 52 53 54 54 53 52 51 51 50 50 50 50 50 48 47 47 47 46 46 45 45
53 54 55 55 55 54 53 52 50 48 47 46 45 44 44 43 43 43 43 44 44 45 46 46 47 47 47 47 49 50 51 51 52 53 54 55 55 54 53 51 50 50 51 51 49 48 47 47 46 46 46 45
56 56 57 57 56 54 52 49 47 45 44 44 44 43 43 42 42 42 42 42 43 44 45 46 47 47 48 48 49 50 51 51 52 52 53 55 56 55 55 53 51 50 52 52 50 49 49 47 46 46 46 45
57 57 56 55 53 51 48 45 43 42 42 43 43 42 42 41 40 40 41 41 41 42 43 44 45 46 47 48 49 50 51 52 52 53 53 55 56 56 56 55 53 52 52 53 51 50 50 48 46 46 46 45
57 55 52 49 46 44 42 41 40 40 39 39 40 40 40 40 39 39 39 38 39 39 40 41 41 42 43 45 47 49 51 52 53 54 54 55 56 57 58 57 55 53 54 53 52 50 50 48 47 46 45 45
54 50 46 43 40 39 39 38 38 37 37 36 37 38 38 39 39 39 38 38 38 38 38 39 40 40 41 42 43 45 47 49 51 53 55 55 55 56 58 58 56 55 54 54 52 51 50 48 48 47 45 44
48 44 41 39 38 37 37 37 36 36 36 36 36 37 37 38 39 40 40 40 40 40 40 40 40 41 41 41 42 43 44 45 47 49 52 55 56 56 56 57 58 56 54 54 54 53 50 47 47 47 46 45
42 39 38 37 37 37 37 37 36 36 36 37 37 38 38 39 40 41 42 43 43 43 43 44 43 43 43 43 43 44 45 45 45 46 48 51 55 57 56 56 58 57 54 54 55 54 51 48 47 46 46 46
Wind_Direction
312 313 314 314 314 312 311 310 309 308 306 306 306 306 307 306 305 304 303 302 300 299 297 297 296 295 294 292 291 290 288 286 284 282 281 279 278 277 276 275 275 274 275 277 277 277 277 277 278 278 276 271
311 312 314 314 313 313 313 312 311 311 311 311 310 309 308 307 306 305 305 303 302 300 298 297 297 296 295 294 293 293 291 289 287 285 283 281 281 279 279 278 277 277 276 276 276 276 275 275 275 275 276 275
309 310 312 312 313 314 314 313 313 313 312 311 309 308 307 306 306 305 304 303 302 300 299 297 296 295 295 295 294 294 292 290 289 287 284 283 281 280 279 279 279 279 278 277 276 275 275 274 273 272 273 274
308 307 308 309 311 312 312 313 313 311 309 308 306 306 305 305 304 304 303 302 301 300 299 297 296 295 294 294 293 293 292 291 290 288 286 284 283 281 280 279 278 279 279 278 277 275 274 274 273 272 272 272
308 308 308 309 310 310 311 312 311 309 308 308 307 305 304 304 303 302 302 301 301 300 299 297 296 295 294 293 292 292 291 291 290 289 288 287 285 284 282 281 280 280 280 280 279 277 275 274 273 272 271 270
309 310 311 312 313 313 313 312 310 310 310 310 309 307 305 304 303 302 301 301 301 300 299 297 296 295 294 293 292 292 291 290 290 289 289 288 286 285 284 283 282 281 281 281 281 280 278 276 275 274 273 271
311 312 314 315 316 317 316 314 314 313 311 311 310 309 308 307 305 304 303 302 302 301 299 298 297 296 295 294 293 292 291 290 290 289 289 288 286 285 284 283 282 281 280 279 279 280 279 279 277 276 274 273
314 316 317 318 319 321 320 319 319 317 315 315 313 312 310 309 307 306 305 304 303 302 301 300 299 297 296 295 294 293 293 292 291 291 290 289 287 286 285 283 282 280 279 278 277 277 277 278 277 276 275 274
319 321 323 324 325 326 326 325 324 322 321 320 317 315 313 312 310 309 307 305 304 303 302 300 299 299 298 297 296 295 294 294 293 292 291 290 289 287 286 285 283 281 279 278 276 275 275 275 276 276 275 274
324 327 328 328 328 328 328 327 326 325 324 322 320 318 316 314 313 311 309 307 305 304 302 301 300 299 298 298 297 296 296 295 295 294 293 292 291 290 289 287 286 283 281 279 277 276 275 274 275 275 275 275
327 328 328 327 327 326 325 325 325 325 324 323 322 320 319 317 314 312 310 308 306 305 303 302 301 299 298 298 297 297 297 296 296 295 294 293 293 292 291 290 289 287 285 283 280 278 277 275 274 273 273 275
325 326 326 326 325 325 324 324 323 323 323 323 323 322 320 318 316 313 311 309 307 305 303 302 301 300 299 298 298 297 297 296 296 295 295 294 294 293 293 292 290 289 288 286 285 283 281 279 276 274 273 273
322 324 325 325 325 324 324 323 322 322 322 322 322 321 320 318 316 314 312 309 307 305 304 302 301 300 299 298 297 296 296 295 295 295 295 294 293 293 292 291 291 289 288 288 287 287 285 284 281 278 275 273
320 323 325 325 324 324 323 322 321 321 321 320 320 319 318 317 315 313 311 309 307 306 304 303 302 301 300 299 297 296 296 295 294 294 293 293 292 292 291 291 290 289 288 288 288 288 287 286 284 282 279 276
320 322 324 323 323 322 321 321 320 319 319 318 317 317 316 315 314 311 309 308 306 305 305 304 303 302 301 300 299 298 297 296 295 294 293 292 292 291 291 290 290 289 288 288 289 288 288 287 286 284 282 279
320 322 322 321 321 320 320 319 318 318 317 316 316 315 314 312 311 309 307 306 305 304 304 303 303 302 301 300 299 299 298 298 296 295 294 293 292 291 291 290 290 289 289 289 289 288 288 287 286 285 283 281
320 321 320 320 319 319 318 318 317 317 316 315 314 313 312 310 308 306 305 304 303 302 302 302 302 301 301 300 300 300 300 299 298 296 295 294 293 292 291 291 290 289 289 288 288 287 287 286 286 285 283 282
320 319 319 318 318 317 317 317 316 315 314 313 312 311 309 308 306 305 304 302 301 300 300 300 300 300 300 299 299 299 299 299 299 298 297 296 294 293 292 291 290 289 288 287 286 286 285 285 284 283 282 281
318 317 317 317 317 317 316 316 315 314 313 312 311 309 308 307 305 304 303 301 300 298 297 296 296 297 297 297 297 297 298 298 299 298 298 298 297 296 294 293 291 289 288 286 285 284 284 283 283 282 281 280
316 316 315 315 316 316 315 314 314 313 312 311 309 308 307 306 305 304 302 301 299 297 295 294 293 293 294 295 295 296 296 296 297 297 297 298 298 297 295 294 292 290 288 286 285 284 283 282 281 280 280 279
314 314 314 314 315 315 315 313 313 311 311 310 308 307 306 305 304 303 302 300 298 297 295 293 292 291 291 292 293 294 294 294 295 295 295 296 296 296 296 295 293 291 289 287 285 283 282 281 280 280 279 278
313 313 313 314 314 314 313 312 311 310 309 308 306 305 304 303 302 301 300 299 298 297 295 294 292 290 289 289 290 291 292 292 292 292 292 293 293 294 294 294 294 293 290 287 285 284 283 281 280 279 278 277
313 313 313 314 314 313 312 310 309 308 306 305 304 303 302 301 300 299 299 298 298 297 296 294 293 291 289 288 288 289 290 290 290 290 290 290 290 290 291 292 293 293 291 288 286 285 284 282 280 278 277 276
313 313 313 314 313 311 309 308 307 306 305 304 303 302 301 300 300 299 299 298 298 297 296 295 293 292 290 288 287 287 287 287 288 288 288 288 288 288 288 289 290 290 290 288 287 286 284 282 281 279 277 276
313 313 314 313 311 309 308 306 305 305 304 303 303 303 302 302 302 301 301 300 299 298 297 295 294 293 292 290 288 287 286 286 286 286 286 287 287 286 286 286 287 287 288 288 287 287 284 283 282 280 277 275
315 315 314 312 310 308 307 306 306 306 306 305 305 304 304 304 304 303 303 302 301 299 298 297 296 294 293 292 290 289 288 286 286 285 285 286 285 285 285 285 286 286 286 286 286 285 284 283 282 280 278 275
315 314 312 310 309 308 307 307 307 307 307 307 306 306 306 306 305 305 304 303 302 301 300 298 297 295 294 293 292 290 289 288 288 286 286 285 285 285 285 284 285 285 284 284 283 284 283 282 280 279 277 275
313 311 309 308 307 307 307 308 307 307 307 306 306 306 306 306 305 305 305 304 304 303 302 301 300 299 297 296 294 292 291 290 288 287 286 286 285 285 284 283 282 282 282 282 281 281 281 280 279 278 276 275
311 308 307 305 305 305 305 306 306 306 305 305 305 305 306 306 306 306 306 306 306 305 305 305 305 304 302 301 299 298 295 293 290 287 286 285 285 284 283 282 280 279 278 279 279 278 277 277 277 277 275 273
308 305 304 303 303 303 303 303 304 304 304 305 305 306 306 307 307 307 308 308 308 307 307 306 306 305 304 304 303 303 301 299 296 292 288 285 284 284 284 281 278 277 276 276 276 275 274 274 275 275 274 272
306 304 302 302 303 303 303 303 303 303 304 305 306 306 307 308 308 309 309 309 308 308 307 306 306 305 304 304 303 302 301 302 301 299 294 289 284 283 283 281 278 276 274 272 272 273 271 271 271 271 271 270